DF5HRN-13 Weather Reports


time (UTC)temp
C
wind
direction
speed
KPH
gust
KPH
rain 1hr
cm
rain 24hr
cm
rain mn
cm
humidity
%
barometer
mb
20260906023005 11 248 0.0 0.0 0.00 0.00 0.00 50 1024.0
20260906021505 11 248 0.0 0.0 0.00 0.00 0.00 50 1024.0
20260906020005 11 248 0.0 0.0 0.00 0.00 0.00 50 1024.0
20260906014505 11 248 0.0 14.5 0.00 0.00 0.00 50 1024.0
20260906013005 12 248 0.0 14.5 0.00 0.00 0.00 50 1024.0
20260906011505 12 225 1.6 14.5 0.00 0.00 0.00 50 1024.0
20260906010005 12 248 1.6 14.5 0.00 0.00 0.00 50 1024.0
20260906004506 13 248 3.2 14.5 0.00 0.00 0.00 50 1024.0
20260906003006 13 248 3.2 14.5 0.00 0.00 0.00 49 1024.0
20260906001506 13 248 1.6 14.5 0.00 0.00 0.00 49 1024.0
20260906000006 13 270 0.0 14.5 0.00 0.00 0.00 48 1024.0
20260905234505 13 270 0.0 14.5 0.00 0.00 0.00 48 1024.0
20260905233006 13 270 0.0 14.5 0.00 0.00 0.00 48 1024.0
20260905231505 13 270 0.0 14.5 0.00 0.00 0.00 48 1024.0
20260905230005 14 270 0.0 14.5 0.00 0.00 0.00 48 1024.0
20260905224505 15 270 0.0 14.5 0.00 0.00 0.00 48 1024.0
20260905223005 15 293 0.0 14.5 0.00 0.00 0.00 48 1024.0
20260905221505 15 270 0.0 14.5 0.00 0.00 0.00 48 1024.0
20260905220005 15 270 0.0 14.5 0.00 0.00 0.00 48 1023.0
20260905204505 15 293 0.0 14.5 0.00 0.00 0.00 47 1023.0
20260905203006 15 270 0.0 14.5 0.00 0.00 0.00 47 1023.0
20260905201505 16 293 0.0 14.5 0.00 0.00 0.00 46 1022.0
20260905200005 16 270 0.0 14.5 0.00 0.00 0.00 47 1022.0
20260905194505 16 270 1.6 14.5 0.00 0.00 0.00 47 1022.0
20260905193005 16 293 4.8 14.5 0.00 0.00 0.00 47 1022.0
20260905191505 16 248 3.2 12.9 0.00 0.00 0.00 48 1022.0
20260905190005 16 225 0.0 19.3 0.00 0.00 0.00 48 1022.0
20260905184505 16 225 0.0 19.3 0.00 0.00 0.00 49 1022.0
20260905183005 16 203 1.6 19.3 0.00 0.00 0.00 50 1022.0
20260905181505 16 203 0.0 19.3 0.00 0.00 0.00 50 1021.0
20260905180005 16 203 0.0 19.3 0.00 0.00 0.00 51 1021.0
20260905174506 17 203 0.0 19.3 0.00 0.00 0.00 52 1021.0
20260905173005 17 203 0.0 19.3 0.00 0.00 0.00 52 1021.0
20260905171505 17 203 0.0 19.3 0.00 0.00 0.00 53 1021.0
20260905170005 17 248 0.0 19.3 0.00 0.00 0.00 53 1020.0
20260905164505 18 203 1.6 19.3 0.00 0.00 0.00 53 1020.0
20260905163005 18 248 1.6 19.3 0.00 0.00 0.00 54 1020.0
20260905161505 18 180 1.6 19.3 0.00 0.00 0.00 54 1020.0
20260905160005 18 225 4.8 14.5 0.00 0.00 0.00 54 1020.0
20260905154505 18 225 8.0 53.1 0.00 0.00 0.00 55 1020.0
20260905153006 18 180 1.6 53.1 0.00 0.00 0.00 55 1020.0
20260905151505 18 248 3.2 53.1 0.00 0.00 0.00 55 1020.0
20260905150005 18 225 1.6 53.1 0.00 0.00 0.00 55 1020.0
20260905144505 18 180 4.8 53.1 0.00 0.00 0.00 55 1020.0
20260905143005 18 203 0.0 53.1 0.00 0.00 0.00 55 1020.0
20260905141505 18 180 0.0 53.1 0.00 0.00 0.00 56 1020.0
20260905140005 18 180 0.0 53.1 0.00 0.00 0.00 56 1020.0
20260905134505 18 203 0.0 53.1 0.00 0.00 0.00 57 1021.0
20260905133005 18 180 0.0 53.1 0.00 0.00 0.00 57 1020.0
20260905131505 18 203 0.0 53.1 0.00 0.00 0.00 57 1021.0
20260905130005 18 203 3.2 53.1 0.00 0.00 0.00 58 1021.0
20260905124505 17 203 0.0 53.1 0.00 0.00 0.00 58 1021.0
20260905123006 17 203 0.0 53.1 0.00 0.00 0.00 58 1021.0
20260905121505 17 203 0.0 53.1 0.00 0.00 0.00 58 1021.0
20260905120005 17 203 0.0 53.1 0.00 0.00 0.00 58 1021.0
20260905114506 17 203 0.0 53.1 0.00 0.00 0.00 58 1021.0
20260905113005 17 180 0.0 53.1 0.00 0.00 0.00 58 1021.0
20260905111505 17 203 0.0 53.1 0.00 0.00 0.00 58 1021.0
20260905110005 17 203 0.0 53.1 0.00 0.00 0.00 58 1021.0
20260905104505 16 203 1.6 53.1 0.00 0.00 0.00 58 1021.0
20260905103005 18 203 3.2 53.1 0.00 0.00 0.00 58 1021.0
20260905101505 18 225 6.4 53.1 0.00 0.00 0.00 58 1021.0
20260905100005 17 203 1.6 53.1 0.00 0.00 0.00 57 1021.0
20260905094505 15 180 6.4 53.1 0.00 0.00 0.00 58 1021.0
20260905093005 14 225 9.7 53.1 0.00 0.00 0.00 58 1021.0
20260905091505 14 180 6.4 53.1 0.00 0.00 0.00 58 1021.0
20260905090005 15 180 1.6 53.1 0.00 0.00 0.00 58 1021.0
20260905084505 16 225 6.4 53.1 0.00 0.00 0.00 59 1021.0
20260905083005 15 248 3.2 53.1 0.00 0.00 0.00 58 1021.0
20260905081505 13 180 0.0 53.1 0.00 0.00 0.00 57 1020.0
20260905080005 13 158 9.7 53.1 0.00 0.00 0.00 57 1020.0
20260905074505 13 158 0.0 53.1 0.00 0.00 0.00 56 1020.0
20260905073005 12 158 8.0 53.1 0.00 0.00 0.00 56 1020.0
20260905071505 13 180 3.2 53.1 0.00 0.00 0.00 55 1019.0
20260905070005 13 180 0.0 53.1 0.00 0.00 0.00 55 1019.0
20260905064505 13 225 0.0 53.1 0.00 0.00 0.00 55 1019.0
20260905063005 13 158 3.2 53.1 0.00 0.00 0.00 55 1019.0
20260905061505 13 338 0.0 53.1 0.00 0.00 0.00 54 1018.0
20260905060006 13 338 0.0 35.4 0.00 0.00 0.00 53 1018.0
20260905054505 13 338 0.0 35.4 0.00 0.00 0.00 53 1018.0
20260905053006 13 338 0.0 35.4 0.00 0.00 0.00 53 1018.0
20260905051505 13 338 0.0 35.4 0.00 0.00 0.00 52 1019.0
20260905050005 13 338 0.0 35.4 0.00 0.00 0.00 51 1019.0
20260905044505 13 315 0.0 35.4 0.00 0.00 0.00 50 1019.0
20260905043005 15 315 0.0 35.4 0.00 0.00 0.00 49 1018.0
20260905041505 16 0 11.3 35.4 0.00 0.00 0.00 47 1018.0
20260905040005 16 315 14.5 35.4 0.00 0.00 0.00 47 1017.0
20260905034505 17 315 17.7 35.4 0.00 0.00 0.00 47 1017.0
20260905033005 18 338 12.9 32.2 0.00 0.00 0.00 48 1017.0
20260905031505 18 338 20.9 30.6 0.00 0.00 0.00 50 1016.0
20260905030005 19 293 3.2 25.7 0.00 0.00 0.00 51 1016.0
20260905024505 19 315 9.7 16.1 0.00 0.00 0.00 53 1016.0